Goldsboro, NC

9:38 AM EDT on June 28, 2017 (GMT -0400)
Goldsboro-Wayne Municipal

Weather History for KGWW - June, 2014

Change the Weather History Date:

Wednesday, June 4, 2014

  Actual Average (KGSB) Record (KGSB)
Temperature  
Mean Temperature 80 °F -  
Max Temperature 93 °F 82 °F 95 °F (2008)
Min Temperature 66 °F 63 °F 55 °F (1997)
Cooling Degree Days 14    
Growing Degree Days 30 (Base 50)    
Moisture  
Dew Point 66 °F    
Average Humidity 70    
Maximum Humidity 99    
Minimum Humidity 36    
Precipitation  
Precipitation 0.00 in - - ()
Sea Level Pressure  
Sea Level Pressure 29.87 in    
Wind  
Wind Speed 3 mph (West)    
Max Wind Speed 12 mph    
Max Gust Speed 17 mph    
Visibility 10 miles    
Events      
Averages and records for this station are not official NWS values.
T = Trace of Precipitation, MM = Missing Value Source: NWS Daily Summary

Daily Weather History Graph

Daily Weather History Graph

Search for Another Location

Airport or City:

Trip Planner

Search our weather history database for the weather conditions in past years. The results will help you decide how hot, cold, wet, or windy it might be!

Date:

Astronomy

Jun. 04, 2014 Rise Set
Actual Time 5:57 AM EDT 8:23 PM EDT
Civil Twilight 5:27 AM EDT 8:53 PM EDT
Nautical Twilight 4:51 AM EDT 9:29 PM EDT
Astronomical Twilight 4:10 AM EDT 10:09 PM EDT
Moon 12:05 PM EDT (6/4) 12:30 AM EDT (6/4)
Length of Visible Light 15h 25m
Length of Day
14h 26m
Waxing Crescent, 39% of the Moon is Illuminated
Jun 4
Waxing Crescent
Jun 5
First Quarter
Jun 13
Full
Jun 19
Last Quarter
Jun 27
New

Hourly Weather History & Observations

Time (EDT) Temp. Heat Index Dew Point Humidity Pressure Visibility Wind Dir Wind Speed Gust Speed Precip Events Conditions
12:15 AM 69.4 °F - 68.0 °F 95% 29.94 in 10.0 mi Calm Calm - N/A   Clear
12:35 AM 68.9 °F - 68.0 °F 97% 29.93 in 10.0 mi SSW 3.5 mph - N/A   Clear
12:55 AM 69.8 °F - 68.9 °F 97% 29.93 in 10.0 mi Calm Calm - N/A   Clear
1:15 AM 68.9 °F - 67.8 °F 96% 29.93 in 10.0 mi Calm Calm - N/A   Clear
1:35 AM 68.2 °F - 67.6 °F 98% 29.93 in 10.0 mi Calm Calm - N/A   Clear
1:55 AM 68.2 °F - 68.0 °F 99% 29.92 in 10.0 mi Calm Calm - N/A   Clear
2:15 AM 68.4 °F - 68.0 °F 99% 29.92 in 10.0 mi Calm Calm - N/A   Scattered Clouds
2:35 AM 68.4 °F - 67.1 °F 96% 29.91 in 10.0 mi SSW 3.5 mph - N/A   Scattered Clouds
2:55 AM 68.7 °F - 66.6 °F 93% 29.90 in 10.0 mi Calm Calm - N/A   Clear
3:15 AM 68.4 °F - 66.7 °F 95% 29.90 in 10.0 mi SSW 3.5 mph - N/A   Clear
3:35 AM 68.5 °F - 66.6 °F 93% 29.90 in 10.0 mi SSW 3.5 mph - N/A   Clear
3:55 AM 67.5 °F - 66.4 °F 96% 29.89 in 10.0 mi Calm Calm - N/A   Clear
4:15 AM 67.3 °F - 66.2 °F 96% 29.90 in 10.0 mi Calm Calm - N/A   Clear
4:35 AM 67.3 °F - 66.4 °F 97% 29.90 in 10.0 mi Calm Calm - N/A   Clear
4:55 AM 66.2 °F - 65.7 °F 98% 29.90 in 10.0 mi SSW 3.5 mph - N/A   Clear
5:15 AM 66.4 °F - 66.0 °F 99% 29.90 in 10.0 mi SW 3.5 mph - N/A   Clear
5:35 AM 68.0 °F - 66.7 °F 96% 29.90 in 10.0 mi WSW 3.5 mph - N/A   Clear
5:55 AM 67.6 °F - 66.2 °F 95% 29.91 in 10.0 mi Calm Calm - N/A   Clear
6:15 AM 68.2 °F - 66.6 °F 95% 29.91 in 10.0 mi WSW 3.5 mph - N/A   Clear
6:35 AM 67.8 °F - 66.6 °F 96% 29.91 in 10.0 mi Calm Calm - N/A   Clear
6:55 AM 68.9 °F - 67.3 °F 95% 29.91 in 10.0 mi West 3.5 mph - N/A   Clear
7:15 AM 69.4 °F - 67.5 °F 93% 29.92 in 10.0 mi West 3.5 mph - N/A   Clear
7:35 AM 70.5 °F - 67.8 °F 91% 29.91 in 10.0 mi WSW 4.6 mph - N/A   Clear
7:55 AM 71.8 °F - 68.2 °F 88% 29.91 in 10.0 mi WSW 4.6 mph - N/A   Clear
8:15 AM 73.8 °F - 68.0 °F 82% 29.92 in 10.0 mi WSW 4.6 mph - N/A   Clear
8:35 AM 75.2 °F - 67.5 °F 77% 29.91 in 10.0 mi West 4.6 mph - N/A   Clear
8:55 AM 76.8 °F - 67.5 °F 73% 29.91 in 10.0 mi West 4.6 mph - N/A   Clear
9:15 AM 78.3 °F - 67.8 °F 70% 29.91 in 10.0 mi West 4.6 mph - N/A   Clear
9:35 AM 79.7 °F - 67.3 °F 66% 29.91 in 10.0 mi WNW 4.6 mph - N/A   Clear
9:55 AM 81.9 °F 84.2 °F 66.7 °F 60% 29.91 in 10.0 mi WNW 5.8 mph - N/A   Clear
10:15 AM 83.3 °F 85.9 °F 66.9 °F 58% 29.91 in 10.0 mi NNW 4.6 mph - N/A   Clear
10:35 AM 84.4 °F 86.8 °F 66.4 °F 55% 29.90 in 10.0 mi WNW 3.5 mph - N/A   Clear
10:55 AM 85.5 °F 87.6 °F 66.0 °F 52% 29.90 in 10.0 mi NNW 4.6 mph - N/A   Clear
11:15 AM 86.0 °F 88.2 °F 65.8 °F 51% 29.90 in 10.0 mi North 3.5 mph - N/A   Clear
11:35 AM 86.4 °F 88.4 °F 65.8 °F 50% 29.90 in 10.0 mi WNW 6.9 mph - N/A   Clear
11:55 AM 87.1 °F 88.9 °F 65.5 °F 48% 29.89 in 10.0 mi NW 4.6 mph - N/A   Clear
12:15 PM 88.0 °F 89.6 °F 64.8 °F 46% 29.89 in 10.0 mi Calm Calm - N/A   Clear
12:35 PM 88.3 °F 90.5 °F 65.5 °F 47% 29.88 in 10.0 mi SW 4.6 mph - N/A   Clear
12:55 PM 88.3 °F 90.2 °F 65.3 °F 46% 29.88 in 10.0 mi Calm Calm - N/A   Clear
1:15 PM 90.1 °F 92.0 °F 64.6 °F 43% 29.87 in 10.0 mi SW 8.1 mph - N/A   Scattered Clouds
1:35 PM 90.9 °F 92.7 °F 64.9 °F 42% 29.87 in 10.0 mi SW 5.8 mph - N/A   Scattered Clouds
1:55 PM 91.9 °F 93.3 °F 63.5 °F 39% 29.86 in 10.0 mi West 5.8 mph - N/A   Scattered Clouds
2:15 PM 90.7 °F 92.4 °F 64.9 °F 42% 29.86 in 10.0 mi West 5.8 mph - N/A   Scattered Clouds
2:35 PM 90.3 °F 91.9 °F 64.2 °F 42% 29.85 in 10.0 mi WNW 6.9 mph - N/A   Scattered Clouds
2:55 PM 92.7 °F 94.4 °F 64.0 °F 39% 29.85 in 10.0 mi West 6.9 mph - N/A   Scattered Clouds
3:15 PM 93.4 °F 94.3 °F 62.8 °F 36% 29.84 in 10.0 mi West 11.5 mph 16.1 mph N/A   Scattered Clouds
3:35 PM 93.4 °F 94.3 °F 62.4 °F 36% 29.83 in 10.0 mi West 6.9 mph - N/A   Mostly Cloudy
3:55 PM 90.7 °F 90.7 °F 61.0 °F 37% 29.82 in 10.0 mi West 4.6 mph - N/A   Scattered Clouds
4:15 PM 90.5 °F 90.7 °F 61.3 °F 38% 29.82 in 10.0 mi West 6.9 mph - N/A   Scattered Clouds
4:35 PM 92.7 °F 93.6 °F 62.6 °F 37% 29.82 in 10.0 mi West 8.1 mph - N/A   Scattered Clouds
5:15 PM 92.7 °F 93.2 °F 62.1 °F 36% 29.81 in 10.0 mi West 6.9 mph - N/A   Scattered Clouds
5:35 PM 90.9 °F 91.3 °F 62.2 °F 38% 29.80 in 10.0 mi WSW 9.2 mph - N/A   Clear
5:55 PM 91.2 °F 91.4 °F 61.5 °F 37% 29.80 in 10.0 mi West 6.9 mph - N/A   Clear
6:15 PM 90.7 °F 91.0 °F 61.5 °F 38% 29.80 in 10.0 mi West 8.1 mph - N/A   Clear
6:35 PM 85.8 °F 87.6 °F 64.9 °F 50% 29.80 in 10.0 mi North 8.1 mph 17.3 mph N/A   Scattered Clouds
6:55 PM 85.3 °F 87.4 °F 65.8 °F 52% 29.80 in 10.0 mi WNW 4.6 mph - N/A   Scattered Clouds
7:15 PM 84.0 °F 86.3 °F 66.4 °F 55% 29.80 in 10.0 mi North 3.5 mph - N/A   Scattered Clouds
7:35 PM 83.8 °F 86.3 °F 66.6 °F 56% 29.80 in 10.0 mi Calm Calm - N/A   Mostly Cloudy
7:55 PM 82.4 °F 84.6 °F 66.4 °F 58% 29.80 in 10.0 mi Calm Calm - N/A   Scattered Clouds
8:15 PM 80.1 °F 82.4 °F 67.3 °F 65% 29.80 in 10.0 mi Calm Calm - N/A   Clear
8:35 PM 77.5 °F - 68.7 °F 74% 29.80 in 10.0 mi Calm Calm - N/A   Clear
8:55 PM 75.9 °F - 68.9 °F 79% 29.80 in 10.0 mi Calm Calm - N/A   Clear
9:15 PM 74.7 °F - 68.2 °F 80% 29.80 in 10.0 mi Calm Calm - N/A   Clear
9:35 PM 73.6 °F - 68.7 °F 85% 29.80 in 10.0 mi Calm Calm - N/A   Clear
9:55 PM 72.7 °F - 68.2 °F 86% 29.81 in 10.0 mi Calm Calm - N/A   Clear
10:15 PM 72.3 °F - 68.0 °F 86% 29.80 in 10.0 mi Calm Calm - N/A   Clear
10:35 PM 72.0 °F - 68.0 °F 87% 29.80 in 10.0 mi Calm Calm - N/A   Clear
10:55 PM 74.1 °F - 67.6 °F 80% 29.80 in 10.0 mi SSW 6.9 mph - N/A   Clear
11:15 PM 78.6 °F - 67.3 °F 68% 29.80 in 10.0 mi SSW 9.2 mph - N/A   Clear
11:35 PM 78.8 °F - 68.4 °F 70% 29.80 in 10.0 mi SSW 10.4 mph - N/A   Clear
11:55 PM 78.8 °F - 69.1 °F 72% 29.80 in 10.0 mi SSW 10.4 mph - N/A   Clear